When you browse on this site, cookies collect data to enhance your experience and personalize the content and advertising you see.
Visit our Privacy Policy to learn more. By continuing to use the site, you agree to this use of cookies and data.
  • En España
  • Lista de países
  • Para 7 días
  • Temperatura del agua
  • Mapa Satelital
  • El tiempo en el mapa
  • Informadores
  • user-avatar
    Iniciar sesión

    Tiempo cada hora Doba

    Hoy, 16 Junio, Domingo

    Tiempo Temperatura Precipitaciones Viento Presión Humedad
    00:00 +24°C° 0 mm 0 mps 727 mmHg 75%
    01:00 +26°C° 0 mm 1 mps 726 mmHg 77%
    02:00 +25°C° 0 mm 1 mps 726 mmHg 77%
    03:00 +25°C° 0 mm 1 mps 726 mmHg 77%
    04:00 +25°C° 0 mm 1 mps 725 mmHg 78%
    05:00 +25°C° 0 mm 1 mps 726 mmHg 78%
    06:00 +26°C° 0 mm 1 mps 726 mmHg 77%
    07:00 +27°C° 0 mm 1 mps 727 mmHg 79%
    08:00 +29°C° 0 mm 1 mps 727 mmHg 71%
    09:00 +31°C° 0 mm 1 mps 727 mmHg 63%
    10:00 +33°C° 0 mm 1 mps 727 mmHg 54%
    11:00 +35°C° 0 mm 1 mps 727 mmHg 49%
    12:00 +36°C° 0 mm 1 mps 727 mmHg 44%
    13:00 +39°C° 0 mm 1 mps 726 mmHg 39%
    14:00 +37°C° 0 mm 1 mps 725 mmHg 40%
    15:00 +38°C° 0 mm 2 mps 725 mmHg 40%
    16:00 +37°C° 0 mm 2 mps 724 mmHg 41%
    17:00 +35°C° 0 mm 2 mps 724 mmHg 46%
    18:00 +33°C° 0 mm 1 mps 724 mmHg 52%
    19:00 +31°C° 0 mm 1 mps 725 mmHg 57%
    20:00 +30°C° 0.1 mm 1 mps 725 mmHg 60%
    21:00 +29°C° 0.1 mm 1 mps 725 mmHg 64%
    22:00 +29°C° 0.1 mm 2 mps 726 mmHg 67%
    23:00 +28°C° 0 mm 2 mps 726 mmHg 71%

    Mañana, 17 Junio, Lunes

    Tiempo Temperatura Precipitaciones Viento Presión Humedad
    00:00 +28°C° 0 mm 2 mps 726 mmHg 75%
    01:00 +27°C° 0 mm 3 mps 726 mmHg 79%
    02:00 +27°C° 0 mm 3 mps 725 mmHg 80%
    03:00 +26°C° 0 mm 3 mps 725 mmHg 81%
    04:00 +26°C° 0 mm 3 mps 725 mmHg 82%
    05:00 +26°C° 0 mm 3 mps 725 mmHg 80%
    06:00 +26°C° 0 mm 2 mps 726 mmHg 78%
    07:00 +27°C° 0 mm 2 mps 726 mmHg 76%
    08:00 +29°C° 0 mm 2 mps 726 mmHg 67%
    09:00 +31°C° 0 mm 2 mps 727 mmHg 59%
    10:00 +35°C° 0 mm 2 mps 727 mmHg 50%
    11:00 +36°C° 0 mm 2 mps 727 mmHg 46%
    12:00 +37°C° 0 mm 2 mps 726 mmHg 42%
    13:00 +39°C° 0 mm 1 mps 726 mmHg 38%
    14:00 +37°C° 0 mm 1 mps 725 mmHg 37%
    15:00 +37°C° 0 mm 1 mps 725 mmHg 36%
    16:00 +37°C° 0 mm 1 mps 724 mmHg 36%
    17:00 +36°C° 0 mm 2 mps 724 mmHg 44%
    18:00 +34°C° 0 mm 2 mps 725 mmHg 52%
    19:00 +31°C° 0 mm 2 mps 725 mmHg 59%
    20:00 +30°C° 0 mm 2 mps 725 mmHg 63%
    21:00 +29°C° 0 mm 2 mps 726 mmHg 67%
    22:00 +29°C° 0 mm 2 mps 727 mmHg 71%
    23:00 +28°C° 0 mm 2 mps 726 mmHg 73%

    Pasado mañana, 18 Junio, Martes

    Tiempo Temperatura Precipitaciones Viento Presión Humedad
    00:00 +27°C° 0 mm 2 mps 726 mmHg 75%
    01:00 +27°C° 0 mm 2 mps 726 mmHg 78%
    02:00 +27°C° 0 mm 2 mps 726 mmHg 77%
    03:00 +27°C° 0 mm 3 mps 726 mmHg 77%
    04:00 +27°C° 0 mm 3 mps 726 mmHg 77%
    05:00 +27°C° 0 mm 3 mps 726 mmHg 76%
    06:00 +27°C° 0 mm 2 mps 727 mmHg 75%
    07:00 +27°C° 0 mm 2 mps 727 mmHg 73%
    08:00 +29°C° 0 mm 2 mps 727 mmHg 65%
    09:00 +31°C° 0 mm 2 mps 728 mmHg 57%
    10:00 +35°C° 0 mm 2 mps 728 mmHg 48%
    11:00 +36°C° 0 mm 2 mps 728 mmHg 45%
    12:00 +37°C° 0 mm 2 mps 727 mmHg 41%
    13:00 +38°C° 0 mm 2 mps 726 mmHg 37%
    14:00 +38°C° 0 mm 2 mps 726 mmHg 38%
    15:00 +38°C° 0 mm 2 mps 726 mmHg 39%
    16:00 +37°C° 0 mm 2 mps 725 mmHg 40%
    17:00 +35°C° 0 mm 2 mps 725 mmHg 47%
    18:00 +32°C° 0 mm 2 mps 725 mmHg 54%
    19:00 +31°C° 0 mm 2 mps 725 mmHg 61%
    20:00 +30°C° 0 mm 2 mps 726 mmHg 64%
    21:00 +29°C° 0 mm 2 mps 726 mmHg 67%
    22:00 +28°C° 0 mm 2 mps 726 mmHg 70%
    23:00 +28°C° 0.1 mm 2 mps 726 mmHg 73%

    19 Junio, Miércoles

    Tiempo Temperatura Precipitaciones Viento Presión Humedad
    00:00 +27°C° 0.1 mm 2 mps 726 mmHg 75%
    01:00 +26°C° 0.1 mm 2 mps 726 mmHg 77%
    02:00 +26°C° 0 mm 2 mps 726 mmHg 80%
    03:00 +26°C° 0 mm 2 mps 726 mmHg 83%
    04:00 +26°C° 0 mm 2 mps 726 mmHg 86%
    05:00 +26°C° 0 mm 2 mps 726 mmHg 84%
    06:00 +26°C° 0 mm 2 mps 726 mmHg 82%
    07:00 +27°C° 0 mm 2 mps 727 mmHg 80%
    08:00 +28°C° 0 mm 2 mps 727 mmHg 73%
    09:00 +30°C° 0 mm 2 mps 727 mmHg 66%
    10:00 +32°C° 0 mm 2 mps 728 mmHg 59%
    11:00 +34°C° 0 mm 2 mps 727 mmHg 52%
    12:00 +36°C° 0 mm 2 mps 726 mmHg 46%
    13:00 +38°C° 0 mm 2 mps 726 mmHg 40%
    14:00 +37°C° 0 mm 2 mps 725 mmHg 40%
    15:00 +37°C° 0 mm 2 mps 725 mmHg 41%
    16:00 +37°C° 0 mm 2 mps 724 mmHg 42%
    17:00 +35°C° 0.1 mm 2 mps 724 mmHg 48%
    18:00 +32°C° 0.1 mm 2 mps 724 mmHg 55%
    19:00 +30°C° 0.1 mm 2 mps 725 mmHg 61%
    20:00 +29°C° 0.1 mm 2 mps 725 mmHg 65%
    21:00 +28°C° 0.1 mm 2 mps 726 mmHg 68%
    22:00 +28°C° 0.1 mm 1 mps 726 mmHg 71%
    23:00 +27°C° 0.1 mm 1 mps 726 mmHg 74%

    20 Junio, Jueves

    Tiempo Temperatura Precipitaciones Viento Presión Humedad
    00:00 +27°C° 0.1 mm 2 mps 726 mmHg 76%
    01:00 +26°C° 0.1 mm 2 mps 725 mmHg 78%
    02:00 +26°C° 0 mm 1 mps 725 mmHg 80%
    03:00 +26°C° 0 mm 1 mps 725 mmHg 83%
    04:00 +26°C° 0 mm 1 mps 725 mmHg 85%
    05:00 +26°C° 0 mm 1 mps 726 mmHg 84%
    06:00 +27°C° 0 mm 1 mps 726 mmHg 83%
    07:00 +27°C° 0 mm 1 mps 727 mmHg 82%
    08:00 +29°C° 0.1 mm 1 mps 727 mmHg 75%
    09:00 +30°C° 0.1 mm 1 mps 728 mmHg 68%
    10:00 +32°C° 0.1 mm 2 mps 728 mmHg 61%
    11:00 +35°C° 0 mm 2 mps 727 mmHg 54%
    12:00 +36°C° 0 mm 1 mps 726 mmHg 47%
    13:00 +37°C° 0 mm 1 mps 726 mmHg 41%
    14:00 +37°C° 0 mm 1 mps 725 mmHg 41%
    15:00 +37°C° 0 mm 2 mps 724 mmHg 42%
    16:00 +37°C° 0 mm 2 mps 724 mmHg 43%
    17:00 +35°C° 0 mm 2 mps 724 mmHg 50%
    18:00 +33°C° 0 mm 3 mps 724 mmHg 57%
    19:00 +30°C° 0 mm 3 mps 724 mmHg 65%
    20:00 +29°C° 0 mm 2 mps 725 mmHg 67%
    21:00 +29°C° 0 mm 2 mps 725 mmHg 69%
    22:00 +28°C° 0 mm 2 mps 726 mmHg 71%
    23:00 +27°C° 0 mm 2 mps 726 mmHg 74%

    21 Junio, Viernes

    Tiempo Temperatura Precipitaciones Viento Presión Humedad
    00:00 +27°C° 0 mm 2 mps 726 mmHg 77%
    01:00 +26°C° 0 mm 2 mps 725 mmHg 80%
    02:00 +26°C° 0 mm 2 mps 725 mmHg 81%
    03:00 +26°C° 0 mm 2 mps 725 mmHg 82%
    04:00 +26°C° 0 mm 2 mps 725 mmHg 83%
    05:00 +26°C° 0 mm 2 mps 726 mmHg 80%
    06:00 +26°C° 0 mm 1 mps 727 mmHg 77%
    07:00 +27°C° 0 mm 1 mps 727 mmHg 74%
    08:00 +29°C° 0 mm 1 mps 728 mmHg 66%
    09:00 +32°C° 0 mm 1 mps 728 mmHg 57%
    10:00 +34°C° 0 mm 1 mps 728 mmHg 48%
    11:00 +35°C° 0.1 mm 1 mps 728 mmHg 45%
    12:00 +37°C° 0.1 mm 2 mps 727 mmHg 42%
    13:00 +38°C° 0.1 mm 2 mps 726 mmHg 39%
    14:00 +37°C° 0 mm 2 mps 725 mmHg 40%
    15:00 +37°C° 0 mm 2 mps 725 mmHg 41%
    16:00 +37°C° 0 mm 2 mps 724 mmHg 42%
    17:00 +35°C° 0 mm 2 mps 724 mmHg 48%
    18:00 +32°C° 0 mm 1 mps 724 mmHg 54%
    19:00 +30°C° 0 mm 1 mps 724 mmHg 60%
    20:00 +29°C° 0.2 mm 1 mps 725 mmHg 64%
    21:00 +28°C° 0.2 mm 1 mps 725 mmHg 69%
    22:00 +27°C° 0.2 mm 1 mps 726 mmHg 73%
    23:00 +27°C° 0.3 mm 1 mps 726 mmHg 77%
    Mostrar más